Regional Weather Roundup
Issued by NWS Sterling, VA

Home | Current Version | Previous Version | Graphics & Text | Print | Product List | Glossary On
Versions: 1 2 3 4 5 6 7 8 9 10 11 12 13 14 15 16 17 18 19 20 21 22 23 24 25 26 27 28 29 30 31 32 33 34 35 36 37 38 39 40 41 42 43 44 45 46
000
ASUS41 KLWX 280210
RWRLWX

REGIONAL WEATHER ROUNDUP
NATIONAL WEATHER SERVICE BALTIMORE MD/WASHINGTON DC
1000 PM EDT MON JUL 27 2015

Note: "FAIR" indicates few or no clouds below 12,000 feet
with no significant weather and/or obstructions to visibility.
 TC=TEMPERATURE CELSIUS

 * =Non NWS site. Station does not report precipitation (e.g. rain,
    snow, etc.), thunder, or fog.

DCZ001-MDZ009-015-VAZ040>042-051-053>054-280300-
WASHINGTON METRO

CITY           SKY/WX    TMP DP  RH WIND       PRES   REMARKS
WASHINGTON NAT PTCLDY    81  75  82 CALM      30.00R
DULLES         PTCLDY    76  71  85 SE3       30.01R
ANDREWS AFB    CLEAR     76  74  96 E5        30.00R
FT BELVOIR     PTCLDY    76  73  91 CALM      29.99R
QUANTICO       CLEAR     80  69  69 SW6       30.00R
COLLEGE PARK*  CLEAR     73  73 100 CALM      30.00R
LEESBURG*      PTCLDY    79  73  83 SE5       30.02R
GAITHERSBURG*  PTCLDY    73  68  83 CALM      30.06R

$$

MDZ006>007-011-014-280300-
BALTIMORE METRO

CITY           SKY/WX    TMP DP  RH WIND       PRES   REMARKS
BWI AIRPORT    PTCLDY    78  74  87 CALM      30.00R
MD SCIENCE CTR   N/A     80  74  81 MISG      30.01R
MARTIN STATE   MOCLDY    81  77  89 S5        30.01R
ANNAPOLIS      MOCLDY    80  73  79 S5        30.00R
FORT MEADE*    CLEAR     72  72 100 CALM      30.03R

$$

MDZ012-015-019>023-280300-
MARYLAND EASTERN SHORE

CITY           SKY/WX    TMP DP  RH WIND       PRES   REMARKS
OCEAN CITY     CLEAR     77  72  84 VRB5      30.03R
SALISBURY      CLEAR     74  72  93 S6        30.02R
BAY BRIDGE AP*   N/A     79  72  78 S5        30.01R
CAMBRIDGE*     MOCLDY    79  72  78 S5        30.00S
EASTON*        CLEAR     78  72  82 CALM      30.05R

$$

MDZ017>025-280300-
SOUTHERN MARYLAND

CITY           SKY/WX    TMP DP  RH WIND       PRES   REMARKS
PATUXENT RIVER PTCLDY    78  72  81 SW6       30.00R
ST INIGOES     MOCLDY    80  72  76 S8        30.00R
LEONARDTOWN*   PTCLDY    73  68  83 SW6       30.02R

$$

MDZ003>005-280300-
NORTH CENTRAL MARYLAND

CITY           SKY/WX    TMP DP  RH WIND       PRES   REMARKS
FREDERICK*     CLEAR     73  72  94 CALM      30.03R
HAGERSTOWN APT CLEAR     79  71  76 E5        30.02R
WESTMINSTER*   PTCLDY    77  73  88 CALM      30.03R

$$

MDZ501>502-280300-
WESTERN MARYLAND

CITY           SKY/WX    TMP DP  RH WIND       PRES   REMARKS
OAKLAND*       PTCLDY    68 N/A N/A E8        30.12R
CUMBERLAND*    PTCLDY    75  72  88 CALM      30.05R

$$

VAZ025>031-280300-
SHENANDOAH VALLEY

CITY           SKY/WX    TMP DP  RH WIND       PRES   REMARKS
WINCHESTER*    CLEAR     77  72  83 CALM      30.02R
FRONT ROYAL*   FAIR      72  72 100 CALM      30.01R
LURAY*         FAIR      73  73 100 CALM      30.03R
NEW MARKET*    FAIR      69  69  99 CALM      30.02R
STAUNTON*      CLEAR     74  69  85 CALM      30.06R
WAYNESBORO*    FAIR      69  69  99 CALM      30.05R

$$

WVZ021-048>050-054>055-280300-
EASTERN WEST VIRGINIA PANHANDLE

CITY           SKY/WX    TMP DP  RH WIND       PRES   REMARKS
MARTINSBURG    MOCLDY    77  71  82 SE3       30.02R
PETERSBURG*    PTCLDY   N/A N/A N/A SW3       30.03R

$$

VAZ036>039-050-280300-
CENTRAL FOOTHILLS

CITY           SKY/WX    TMP DP  RH WIND       PRES   REMARKS
CHARLOTTESVILL MOCLDY    73  71  93 S3        30.01R
CULPEPER*      CLEAR     75  70  84 CALM      30.00S
ORANGE*        PTCLDY    73  70  88 CALM      30.02R
GORDONSVILLE*  FAIR      72  70  94 CALM      30.01R
WARRENTON*     DRIZZLE   77  74  90 CALM      30.00R

$$

VAZ055>057-280300-
NORTH AND CENTRAL PIEDMONT

CITY           SKY/WX    TMP DP  RH WIND       PRES   REMARKS
FREDERICKSBRG* PTCLDY    75  70  85 S3        29.99S
STAFFORD*      CLEAR     74  68  82 S3        30.04R

$$

NCZ024-NYZ072-PAZ021-071-VAZ022-071-280300-
OTHER REGIONAL OBSERVATIONS

CITY           SKY/WX    TMP DP  RH WIND       PRES   REMARKS
NEW YORK CITY  MOCLDY    79  66  64 CALM      30.04R
PHILADELPHIA   MOCLDY    79  70  74 S6        30.02R
PITTSBURGH     PTCLDY    81  62  52 N6        30.01R
ROANOKE        MOCLDY    79  72  79 CALM      30.03R
RICHMOND       MOCLDY    77  74  90 E3        30.00R
RALEIGH        MOCLDY    81  70  69 S3        30.00R

$$

ANZ530>537-280300-
MARINE OBSERVATIONS

STATION/POSITION TIME  TEMP    WIND        PRES
                       AIR SEA DIR/SP/G
                 (UTC) (F)     (DEG/KT/KT) (MB)
THOMAS PT LIGHT  NOT AVBL
BALT KEY BRIDGE  0100   80     150/  7/  8 1015.2R
COVE POINT       0100   81     200/ 11/ 14 1016.2R
LEWISETTA        0100   80 82  200/  7/  9 1015.4R
SOLOMONS ISLAND  0100      83                N/A

$$




USA.gov is the U.S. government's official web portal to all federal, state and local government web resources and services.